Home > Weather > Reading > Past weeks

Flag for United Kingdom Weather for the Past 2 Weeks in Reading, England, United Kingdom

Now
41 °F

Passing clouds.


Feels Like: 32 °F
Forecast: N/A
Wind: 17 mph from Southwest

Location: Benson

Current Time: Feb 8, 2016 at 11:59:37 PM

Latest Report: Feb 8, 2016 at 10:50 PM


Visibility: N/A

Pressure: 29.36 "Hg

Humidity: 76%

Dew point: 34 °F

Location of ReadingLocation

Historic Weather in Reading — Graph

°F

Reading Temperature Yesterday

Maximum temperature yesterday: 50 °F (at 9:50 PM)
Minimum temperature yesterday: 39 °F (at 4:50 AM)
Average temperature yesterday: 44 °F

High & Low Weather Summary for the Past Weeks

 TemperatureHumidityPressure
High55 °F (Jan 25, 2:50 PM)100% (Jan 31, 10:50 AM)30.36 "Hg (Jan 31, 10:50 AM)
Low32 °F (Jan 28, 4:50 AM)46% (Feb 2, 1:50 PM)29.00 "Hg (Feb 8, 6:50 AM)
Average48 °F80%29.85 "Hg
* Reported Jan 24 9:50 PM — Feb 8 9:50 PM, Reading, Weather by CustomWeather, © 2016

Note: Actual official high and low records may vary slightly from our data, if they occured in-between our weather recording intervals... More about our weather records

Advertising

Reading Weather History for the Previous 24 Hours

 ConditionsComfort  
Time TempWeatherWind HumidityBarometerVisibility
9:50 PM
Mon, Feb 8
41 °FPassing clouds.14 mph76%29.36 "HgN/A
8:50 PM45 °FPassing clouds.18 mph66%29.33 "HgN/A
7:50 PM45 °FPassing clouds.20 mph71%29.33 "HgN/A
6:50 PM46 °FPassing clouds.24 mph66%29.30 "HgN/A
5:50 PM46 °FPartly cloudy.28 mph71%29.24 "HgN/A
4:50 PM46 °FBroken clouds.24 mph82%29.21 "HgN/A
3:50 PM48 °FBroken clouds.26 mph71%29.15 "HgN/A
2:50 PM46 °FRain showers. Partly sunny.29 mph76%29.09 "HgN/A
1:50 PM46 °FMostly cloudy.30 mph76%29.06 "HgN/A
12:50 PM46 °FSprinkles. Broken clouds.28 mph82%29.03 "HgN/A
11:50 AM46 °FPartly sunny.30 mph71%29.03 "HgN/A
10:50 AM46 °FBroken clouds.24 mph76%29.03 "HgN/A
9:50 AM45 °FPartly sunny.22 mph76%29.00 "HgN/A
8:50 AM45 °FBroken clouds.24 mph71%29.03 "HgN/A
7:50 AM43 °FScattered clouds.22 mph76%29.00 "HgN/A
6:50 AM41 °FPassing clouds.17 mph87%29.00 "HgN/A
5:50 AM43 °FPassing clouds.22 mph71%29.03 "HgN/A
4:50 AM45 °FPassing clouds.15 mph76%29.03 "HgN/A
3:50 AM45 °FPassing clouds.23 mph71%29.03 "HgN/A
2:50 AM45 °FPassing clouds.18 mph76%29.03 "HgN/A
1:50 AM45 °FPassing clouds.15 mph76%29.06 "HgN/A
12:50 AM46 °FPassing clouds.26 mph76%29.03 "HgN/A
11:50 PM
Sun, Feb 7
48 °FPassing clouds.17 mph66%29.03 "HgN/A
Weather by CustomWeather, © 2016

See weather overviewHow to use our weather pages